Location: Ch?enovice
(49.7164°N, 15.2160°E)
Time: 20:23:07
(UTC+00:00)

BREEZE-M DEB (TANK) - Pass Details

Date: 23 May 2024
Orbit: 289 x 16912 km, 49.4° (Epoch: 20 June)

Event Time Altitude Azimuth Distance (km) Brightness Sun altitude
Exits shadow 00:11:16 31° 232° (SW) 1,109 3.9 -17.7°
Maximum altitude 00:12:19 36° 198° (SSW) 1,158 3.9 -17.6°
Drops below altitude 10° 00:20:19 10° 135° (SE) 4,436 7.2 -17.2°
Sets 00:27:29 0° 131° (SE) 7,441 8.4 -16.8°
